Cotes De Bretagne — FW3973 — position and weather

sailwx.info

Track history (hours):
 
Tides and Currents Weather Stations Pressure Air Temp Water Temp Dewpoint Dewpoint Depression Visibility Wind Speed Wind Dir Waves Ship Positions

Cotes De Bretagne

Last reported at 2014-Jul-29 11:33 UTC. Time now 2014-Jul-29 12:43 UTC.
Position N 47°35' W 003°33'.

Length 75 m; draft 4.1 m.

Type: Dredging. MMSI: 227003850.

Date/timePositionNaut miles runAvg speedWind from/ knotsBaromVisibWave heightAir tempDewpointWater temp
2014-Jul-29 11:33N 47°35' W 003°33'9 9.3
2014-Jul-29 10:33N 47°30' W 003°23'10 9.5
2014-Jul-29 09:31N 47°24' W 003°11'39 7.2
2014-Jul-29 04:11N 47°05' W 002°21'0 0.3
2014-Jul-29 03:23N 47°05' W 002°20'31 7.3
2014-Jul-28 23:11N 47°20' W 003°00'710.4
2014-Jul-28 22:30N 47°24' W 003°09'1010.2
2014-Jul-28 21:33N 47°29' W 003°22'1110.6
2014-Jul-28 20:34N 47°35' W 003°34'31 6.3
2014-Jul-28 15:33N 47°58' W 004°06'30 7.3
2014-Jul-28 11:24N 47°36' W 003°35'8 9.3
2014-Jul-28 10:33N 47°31' W 003°26'10 9.5
2014-Jul-28 09:33N 47°26' W 003°14'8 0.7
2014-Jul-27 22:33N 47°22' W 003°05'1010.1
2014-Jul-27 21:33N 47°27' W 003°18'1010.4
2014-Jul-27 20:33N 47°33' W 003°30'3210.6
2014-Jul-27 17:34N 47°53' W 004°07'2 0.5
2014-Jul-27 13:33N 47°50' W 004°06'26 5.0
2014-Jul-27 08:19N 47°36' W 003°34'7 9.5
2014-Jul-27 07:33N 47°31' W 003°26'10 9.7
2014-Jul-27 06:33N 47°25' W 003°14'9 9.1
2014-Jul-27 05:34N 47°21' W 003°03'9 9.1
2014-Jul-27 04:33N 47°14' W 002°53'32 9.5
2014-Jul-27 01:10N 46°50' W 002°22'6 9.3
2014-Jul-27 00:32N 46°46' W 002°16'9 9.5
2014-Jul-26 23:34N 46°38' W 002°08'9 9.4
2014-Jul-26 22:34N 46°31' W 002°01'9 9.4
2014-Jul-26 21:33N 46°23' W 001°52'9 9.3
2014-Jul-26 20:34N 46°15' W 001°45'9 8.9
2014-Jul-26 19:34N 46°08' W 001°38'3 3.3
2014-Jul-26 18:34N 46°05' W 001°36'0 0.2
2014-Jul-26 17:33N 46°05' W 001°36'6 5.8
2014-Jul-26 16:33N 46°10' W 001°39'1110.9
2014-Jul-26 15:34N 46°21' W 001°44'10 9.6
2014-Jul-26 14:33N 46°30' W 001°48'0 0.2
2014-Jul-26 13:33N 46°30' W 001°48'1 1.5
2014-Jul-26 12:34N 46°29' W 001°47'0 0.3
2014-Jul-26 11:32N 46°28' W 001°47'0 0.0
2014-Jul-26 10:32N 46°28' W 001°47'0 0.1
2014-Jul-26 09:32N 46°28' W 001°47'0 0.0
2014-Jul-26 08:32N 46°28' W 001°47'0 0.0
2014-Jul-26 07:32N 46°28' W 001°47'0 0.0
2014-Jul-26 06:32N 46°28' W 001°47'4 3.9
2014-Jul-26 05:33N 46°24' W 001°46'8 7.8
2014-Jul-26 04:33N 46°17' W 001°44'9 7.8
2014-Jul-26 03:26N 46°09' W 001°38'4 2.3
2014-Jul-26 01:28N 46°05' W 001°35'0 0.2
2014-Jul-26 00:31N 46°05' W 001°35'9 9.2
2014-Jul-25 23:31N 46°13' W 001°43'1010.1
2014-Jul-25 22:33N 46°21' W 001°51'1010.2
2014-Jul-25 21:33N 46°29' W 001°59'1010.4
2014-Jul-25 20:33N 46°38' W 002°08'1010.2
2014-Jul-25 19:33N 46°46' W 002°16'1010.1
2014-Jul-25 18:33N 46°54' W 002°26'19 1.7
2014-Jul-25 07:29N 47°12' W 002°19'4 1.8
2014-Jul-25 05:27N 47°08' W 002°20'7 7.8
2014-Jul-25 04:30N 47°03' W 002°27'7 7.8
2014-Jul-25 03:33N 46°56' W 002°29'8 8.0
2014-Jul-25 02:33N 46°49' W 002°21'8 8.0
2014-Jul-25 01:32N 46°43' W 002°13'8 8.6
2014-Jul-25 00:33N 46°36' W 002°06'9 8.6
2014-Jul-24 23:33N 46°29' W 001°60'9 8.5
2014-Jul-24 22:33N 46°22' W 001°53'9 8.7
2014-Jul-24 21:33N 46°15' W 001°45'9 8.9
2014-Jul-24 20:33N 46°08' W 001°38'1 0.5
2014-Jul-24 17:33N 46°09' W 001°38'1010.2
2014-Jul-24 16:33N 46°18' W 001°44'10 9.9
2014-Jul-24 15:33N 46°28' W 001°46'2 2.0
2014-Jul-24 14:34N 46°30' W 001°48'0 0.0
2014-Jul-24 13:33N 46°30' W 001°48'1 0.7
2014-Jul-24 12:33N 46°29' W 001°47'1 1.1
2014-Jul-24 11:33N 46°28' W 001°47'0 0.0
2014-Jul-24 10:33N 46°28' W 001°47'5 5.2
2014-Jul-24 09:33N 46°23' W 001°45'9 9.1
2014-Jul-24 08:33N 46°14' W 001°42'9 8.9
2014-Jul-24 07:33N 46°06' W 001°36'2 1.6
2014-Jul-24 06:33N 46°05' W 001°36'0 0.5
2014-Jul-24 05:33N 46°05' W 001°35'4 4.3
2014-Jul-24 04:33N 46°09' W 001°38'1110.7
2014-Jul-24 03:33N 46°19' W 001°44'1010.4
2014-Jul-24 02:33N 46°29' W 001°47'1 1.1
2014-Jul-24 01:33N 46°30' W 001°48'0 0.0
2014-Jul-24 00:33N 46°30' W 001°48'2 1.7
2014-Jul-23 23:32N 46°28' W 001°47'0 0.0
2014-Jul-23 22:32N 46°28' W 001°47'2 2.3
2014-Jul-23 21:33N 46°26' W 001°46'9 8.7
2014-Jul-23 20:33N 46°18' W 001°44'9 8.7
2014-Jul-23 19:33N 46°10' W 001°39'5 5.0
2014-Jul-23 18:32N 46°05' W 001°35'0 0.1
2014-Jul-23 17:24N 46°05' W 001°36'2 1.7
2014-Jul-23 16:28N 46°06' W 001°36'1010.9
2014-Jul-23 15:33N 46°15' W 001°43'1110.8
2014-Jul-23 14:33N 46°26' W 001°46'4 4.4
2014-Jul-23 13:33N 46°30' W 001°48'0 0.0
2014-Jul-23 12:33N 46°30' W 001°48'2 1.8
2014-Jul-23 11:33N 46°28' W 001°47'0 0.0
2014-Jul-23 10:33N 46°28' W 001°47'0 0.0
2014-Jul-23 09:33N 46°28' W 001°47'0 0.0
2014-Jul-23 08:33N 46°28' W 001°47'0 0.1
2014-Jul-23 07:33N 46°28' W 001°47'7 6.7
2014-Jul-23 06:33N 46°22' W 001°46'9 8.5
2014-Jul-23 05:33N 46°14' W 001°41'6 1.4
2014-Jul-23 01:33N 46°08' W 001°38'1010.4
2014-Jul-23 00:33N 46°17' W 001°47'1010.4
2014-Jul-22 23:34N 46°25' W 001°55'1110.5
2014-Jul-22 22:34N 46°34' W 002°04'1010.3
2014-Jul-22 21:33N 46°43' W 002°13'4310.1
2014-Jul-22 17:19N 47°14' W 002°54'810.6
2014-Jul-22 16:33N 47°20' W 003°02'1010.2
2014-Jul-22 15:33N 47°28' W 003°12'1110.6
2014-Jul-22 14:34N 47°37' W 003°20'8 7.8
2014-Jul-22 13:33N 47°45' W 003°19'0 0.0
2014-Jul-22 12:34N 47°45' W 003°19'0 0.0
2014-Jul-22 11:34N 47°45' W 003°19'1 0.9
2014-Jul-22 10:33N 47°44' W 003°20'1 0.6
2014-Jul-22 09:34N 47°44' W 003°21'0 0.0
2014-Jul-22 08:33N 47°44' W 003°21'0 0.0
2014-Jul-22 07:33N 47°44' W 003°21'6 5.5
2014-Jul-22 06:33N 47°39' W 003°22'9 9.2
2014-Jul-22 05:33N 47°31' W 003°14'10 9.4
2014-Jul-22 04:32N 47°23' W 003°07'11 9.2
2014-Jul-22 03:19N 47°15' W 002°55'7 9.1
2014-Jul-22 02:31N 47°10' W 002°48'19 9.0
2014-Jul-22 00:26N 46°56' W 002°30'15 8.2
2014-Jul-21 22:32N 46°44' W 002°14'8 8.6
2014-Jul-21 21:33N 46°37' W 002°07'8 8.3
2014-Jul-21 20:33N 46°30' W 002°01'2 8.2
2014-Jul-21 20:18N 46°29' W 001°59'6 8.1
2014-Jul-21 19:33N 46°24' W 001°54'8 8.3
2014-Jul-21 18:33N 46°17' W 001°47'8 8.4
2014-Jul-21 17:33N 46°10' W 001°41'3 0.8
2014-Jul-21 13:34N 46°13' W 001°42'10 9.9
2014-Jul-21 12:34N 46°23' W 001°45'8 7.5
2014-Jul-21 11:33N 46°30' W 001°48'0 0.0
2014-Jul-21 10:33N 46°30' W 001°48'  
Track history (hours):
 
Tides and Currents Weather Stations Pressure Air Temp Water Temp Dewpoint Dewpoint Depression Visibility Wind Speed Wind Dir Waves Ship Positions

Cotes De Bretagne

Last reported at 2014-Jul-29 11:33 UTC. Time now 2014-Jul-29 12:43 UTC.
Position N 47°35' W 003°33'.

Length 75 m; draft 4.1 m.

Type: Dredging. MMSI: 227003850.

Date/timePositionNaut miles runAvg speedWind from/ knotsBaromVisibWave heightAir tempDewpointWater temp
2014-Jul-29 11:33N 47°35' W 003°33'9 9.3
2014-Jul-29 10:33N 47°30' W 003°23'10 9.5
2014-Jul-29 09:31N 47°24' W 003°11'39 7.2
2014-Jul-29 04:11N 47°05' W 002°21'0 0.3
2014-Jul-29 03:23N 47°05' W 002°20'31 7.3
2014-Jul-28 23:11N 47°20' W 003°00'710.4
2014-Jul-28 22:30N 47°24' W 003°09'1010.2
2014-Jul-28 21:33N 47°29' W 003°22'1110.6
2014-Jul-28 20:34N 47°35' W 003°34'31 6.3
2014-Jul-28 15:33N 47°58' W 004°06'30 7.3
2014-Jul-28 11:24N 47°36' W 003°35'8 9.3
2014-Jul-28 10:33N 47°31' W 003°26'10 9.5
2014-Jul-28 09:33N 47°26' W 003°14'8 0.7
2014-Jul-27 22:33N 47°22' W 003°05'1010.1
2014-Jul-27 21:33N 47°27' W 003°18'1010.4
2014-Jul-27 20:33N 47°33' W 003°30'3210.6
2014-Jul-27 17:34N 47°53' W 004°07'2 0.5
2014-Jul-27 13:33N 47°50' W 004°06'26 5.0
2014-Jul-27 08:19N 47°36' W 003°34'7 9.5
2014-Jul-27 07:33N 47°31' W 003°26'10 9.7
2014-Jul-27 06:33N 47°25' W 003°14'9 9.1
2014-Jul-27 05:34N 47°21' W 003°03'9 9.1
2014-Jul-27 04:33N 47°14' W 002°53'32 9.5
2014-Jul-27 01:10N 46°50' W 002°22'6 9.3
2014-Jul-27 00:32N 46°46' W 002°16'9 9.5
2014-Jul-26 23:34N 46°38' W 002°08'9 9.4
2014-Jul-26 22:34N 46°31' W 002°01'9 9.4
2014-Jul-26 21:33N 46°23' W 001°52'9 9.3
2014-Jul-26 20:34N 46°15' W 001°45'9 8.9
2014-Jul-26 19:34N 46°08' W 001°38'3 3.3
2014-Jul-26 18:34N 46°05' W 001°36'0 0.2
2014-Jul-26 17:33N 46°05' W 001°36'6 5.8
2014-Jul-26 16:33N 46°10' W 001°39'1110.9
2014-Jul-26 15:34N 46°21' W 001°44'10 9.6
2014-Jul-26 14:33N 46°30' W 001°48'0 0.2
2014-Jul-26 13:33N 46°30' W 001°48'1 1.5
2014-Jul-26 12:34N 46°29' W 001°47'0 0.3
2014-Jul-26 11:32N 46°28' W 001°47'0 0.0
2014-Jul-26 10:32N 46°28' W 001°47'0 0.1
2014-Jul-26 09:32N 46°28' W 001°47'0 0.0
2014-Jul-26 08:32N 46°28' W 001°47'0 0.0
2014-Jul-26 07:32N 46°28' W 001°47'0 0.0
2014-Jul-26 06:32N 46°28' W 001°47'4 3.9
2014-Jul-26 05:33N 46°24' W 001°46'8 7.8
2014-Jul-26 04:33N 46°17' W 001°44'9 7.8
2014-Jul-26 03:26N 46°09' W 001°38'4 2.3
2014-Jul-26 01:28N 46°05' W 001°35'0 0.2
2014-Jul-26 00:31N 46°05' W 001°35'9 9.2
2014-Jul-25 23:31N 46°13' W 001°43'1010.1
2014-Jul-25 22:33N 46°21' W 001°51'1010.2
2014-Jul-25 21:33N 46°29' W 001°59'1010.4
2014-Jul-25 20:33N 46°38' W 002°08'1010.2
2014-Jul-25 19:33N 46°46' W 002°16'1010.1
2014-Jul-25 18:33N 46°54' W 002°26'19 1.7
2014-Jul-25 07:29N 47°12' W 002°19'4 1.8
2014-Jul-25 05:27N 47°08' W 002°20'7 7.8
2014-Jul-25 04:30N 47°03' W 002°27'7 7.8
2014-Jul-25 03:33N 46°56' W 002°29'8 8.0
2014-Jul-25 02:33N 46°49' W 002°21'8 8.0
2014-Jul-25 01:32N 46°43' W 002°13'8 8.6
2014-Jul-25 00:33N 46°36' W 002°06'9 8.6
2014-Jul-24 23:33N 46°29' W 001°60'9 8.5
2014-Jul-24 22:33N 46°22' W 001°53'9 8.7
2014-Jul-24 21:33N 46°15' W 001°45'9 8.9
2014-Jul-24 20:33N 46°08' W 001°38'1 0.5
2014-Jul-24 17:33N 46°09' W 001°38'1010.2
2014-Jul-24 16:33N 46°18' W 001°44'10 9.9
2014-Jul-24 15:33N 46°28' W 001°46'2 2.0
2014-Jul-24 14:34N 46°30' W 001°48'0 0.0
2014-Jul-24 13:33N 46°30' W 001°48'1 0.7
2014-Jul-24 12:33N 46°29' W 001°47'1 1.1
2014-Jul-24 11:33N 46°28' W 001°47'0 0.0
2014-Jul-24 10:33N 46°28' W 001°47'5 5.2
2014-Jul-24 09:33N 46°23' W 001°45'9 9.1
2014-Jul-24 08:33N 46°14' W 001°42'9 8.9
2014-Jul-24 07:33N 46°06' W 001°36'2 1.6
2014-Jul-24 06:33N 46°05' W 001°36'0 0.5
2014-Jul-24 05:33N 46°05' W 001°35'4 4.3
2014-Jul-24 04:33N 46°09' W 001°38'1110.7
2014-Jul-24 03:33N 46°19' W 001°44'1010.4
2014-Jul-24 02:33N 46°29' W 001°47'1 1.1
2014-Jul-24 01:33N 46°30' W 001°48'0 0.0
2014-Jul-24 00:33N 46°30' W 001°48'2 1.7
2014-Jul-23 23:32N 46°28' W 001°47'0 0.0
2014-Jul-23 22:32N 46°28' W 001°47'2 2.3
2014-Jul-23 21:33N 46°26' W 001°46'9 8.7
2014-Jul-23 20:33N 46°18' W 001°44'9 8.7
2014-Jul-23 19:33N 46°10' W 001°39'5 5.0
2014-Jul-23 18:32N 46°05' W 001°35'0 0.1
2014-Jul-23 17:24N 46°05' W 001°36'2 1.7
2014-Jul-23 16:28N 46°06' W 001°36'1010.9
2014-Jul-23 15:33N 46°15' W 001°43'1110.8
2014-Jul-23 14:33N 46°26' W 001°46'4 4.4
2014-Jul-23 13:33N 46°30' W 001°48'0 0.0
2014-Jul-23 12:33N 46°30' W 001°48'2 1.8
2014-Jul-23 11:33N 46°28' W 001°47'0 0.0
2014-Jul-23 10:33N 46°28' W 001°47'0 0.0
2014-Jul-23 09:33N 46°28' W 001°47'0 0.0
2014-Jul-23 08:33N 46°28' W 001°47'0 0.1
2014-Jul-23 07:33N 46°28' W 001°47'7 6.7
2014-Jul-23 06:33N 46°22' W 001°46'9 8.5
2014-Jul-23 05:33N 46°14' W 001°41'6 1.4
2014-Jul-23 01:33N 46°08' W 001°38'1010.4
2014-Jul-23 00:33N 46°17' W 001°47'1010.4
2014-Jul-22 23:34N 46°25' W 001°55'1110.5
2014-Jul-22 22:34N 46°34' W 002°04'1010.3
2014-Jul-22 21:33N 46°43' W 002°13'4310.1
2014-Jul-22 17:19N 47°14' W 002°54'810.6
2014-Jul-22 16:33N 47°20' W 003°02'1010.2
2014-Jul-22 15:33N 47°28' W 003°12'1110.6
2014-Jul-22 14:34N 47°37' W 003°20'8 7.8
2014-Jul-22 13:33N 47°45' W 003°19'0 0.0
2014-Jul-22 12:34N 47°45' W 003°19'0 0.0
2014-Jul-22 11:34N 47°45' W 003°19'1 0.9
2014-Jul-22 10:33N 47°44' W 003°20'1 0.6
2014-Jul-22 09:34N 47°44' W 003°21'0 0.0
2014-Jul-22 08:33N 47°44' W 003°21'0 0.0
2014-Jul-22 07:33N 47°44' W 003°21'6 5.5
2014-Jul-22 06:33N 47°39' W 003°22'9 9.2
2014-Jul-22 05:33N 47°31' W 003°14'10 9.4
2014-Jul-22 04:32N 47°23' W 003°07'11 9.2
2014-Jul-22 03:19N 47°15' W 002°55'7 9.1
2014-Jul-22 02:31N 47°10' W 002°48'19 9.0
2014-Jul-22 00:26N 46°56' W 002°30'15 8.2
2014-Jul-21 22:32N 46°44' W 002°14'8 8.6
2014-Jul-21 21:33N 46°37' W 002°07'8 8.3
2014-Jul-21 20:33N 46°30' W 002°01'2 8.2
2014-Jul-21 20:18N 46°29' W 001°59'6 8.1
2014-Jul-21 19:33N 46°24' W 001°54'8 8.3
2014-Jul-21 18:33N 46°17' W 001°47'8 8.4
2014-Jul-21 17:33N 46°10' W 001°41'3 0.8
2014-Jul-21 13:34N 46°13' W 001°42'10 9.9
2014-Jul-21 12:34N 46°23' W 001°45'8 7.5
2014-Jul-21 11:33N 46°30' W 001°48'0 0.0
2014-Jul-21 10:33N 46°30' W 001°48'  

Dump ship's entire track history